CAPE
0 0 0 0 0 0 0 0 0 0 0 0 0 0 0 0 0 0 0 0 0 0 0 0 0 1 3 4 5 5 8 8 9 13 11 11 11 13
0 0 0 0 0 0 0 0 0 0 0 0 0 0 0 0 0 0 0 0 0 0 0 0 0 1 2 2 3 6 5 3 1 2 3 8 11 11
0 0 0 0 0 0 0 0 0 0 0 0 0 0 0 0 0 0 0 0 0 0 0 0 0 0 0 0 0 0 0 0 0 0 3 5 7 8
0 0 0 0 0 0 0 0 0 0 0 0 0 0 0 0 0 0 0 0 0 0 0 0 0 0 0 0 0 0 0 0 0 0 2 3 5 7
0 0 0 0 0 0 0 0 0 0 0 0 0 0 0 0 0 0 0 0 0 0 0 0 0 0 0 0 0 0 0 0 0 0 0 2 4 7
0 0 0 0 0 0 0 0 0 0 0 0 0 0 0 0 0 0 0 0 0 0 0 0 0 0 0 0 0 0 0 0 1 2 4 7 5 4
0 0 0 0 0 0 0 0 0 0 0 0 0 0 0 0 0 0 0 0 0 0 0 0 0 0 0 0 0 0 0 1 4 11 13 12 10 9
0 0 0 0 0 0 0 0 0 0 0 0 0 0 0 0 0 0 0 0 0 0 0 0 0 0 0 0 0 0 0 2 3 5 10 12 11 9
0 0 0 0 0 0 0 0 0 0 0 0 0 0 0 0 0 0 0 0 0 0 0 0 0 0 0 0 0 0 0 2 5 7 7 8 11 17
0 0 0 0 0 0 0 0 0 0 0 0 0 0 0 0 0 0 0 0 0 0 0 0 0 0 0 0 0 1 2 1 0 0 2 5 6 8
0 0 0 0 0 0 0 0 0 0 0 0 0 0 0 0 0 0 0 0 0 0 0 0 0 0 0 0 0 0 0 0 0 0 0 2 5 9
0 0 0 0 0 0 0 0 0 0 0 0 0 0 0 0 0 0 0 0 0 0 0 0 0 0 0 0 0 0 0 0 0 0 0 0 0 0
0 0 0 0 0 0 0 0 0 0 0 0 0 0 0 0 0 0 0 0 0 0 0 0 0 0 0 0 0 0 0 0 0 0 0 0 0 1
0 0 0 0 1 3 0 0 0 0 0 0 0 0 0 0 0 0 0 0 0 0 0 0 0 0 1 0 0 0 0 0 0 0 0 0 0 0
0 0 0 0 2 0 0 1 0 0 0 0 0 0 0 0 0 0 0 0 0 0 0 0 0 0 0 0 0 0 0 0 0 0 0 0 0 0
0 0 0 0 0 0 0 0 0 0 0 0 0 0 0 0 0 0 0 0 0 0 0 0 0 0 0 0 0 0 0 0 0 0 0 0 0 0
0 0 0 0 0 0 0 0 0 0 0 0 0 0 0 0 0 0 0 0 0 0 0 0 0 0 0 0 0 0 0 0 0 0 0 0 0 0
0 0 0 0 0 0 0 0 0 0 0 0 0 0 0 0 0 0 0 0 0 0 0 0 0 0 0 0 0 0 0 0 0 0 0 0 0 0
0 0 0 0 0 0 0 0 0 0 0 0 0 0 0 0 0 0 0 0 0 0 0 0 0 0 0 0 0 0 0 0 0 0 0 0 0 0
0 0 0 0 0 0 0 0 0 0 0 0 0 0 0 0 0 0 0 0 0 0 0 0 0 0 0 0 0 0 0 0 0 0 0 0 0 3
0 0 0 0 0 0 0 0 0 0 0 0 0 0 0 0 0 0 0 0 0 0 0 0 0 0 0 0 0 0 0 0 0 0 0 0 0 0
0 0 0 0 0 0 0 0 0 0 0 0 0 0 0 0 0 0 0 0 0 0 0 0 0 0 0 0 0 0 0 0 0 0 0 1 0 1
0 0 0 0 0 0 0 0 0 0 0 0 0 0 0 0 0 0 0 0 0 0 0 0 0 0 0 0 0 0 0 0 0 0 0 0 0 3
CIN
0 0 0 0 0 0 0 0 0 0 0 0 0 0 0 0 0 0 0 0 0 0 0 0 0 0 0 0 0 0 0 0 0 0 0 0 0 0
0 0 0 0 0 0 0 0 0 0 0 0 0 0 0 0 0 0 0 0 0 0 0 0 0 0 0 0 0 0 0 0 0 0 0 0 0 0
0 0 0 0 0 0 0 0 0 0 0 0 0 0 0 0 0 0 0 0 0 0 0 0 0 0 0 0 0 0 0 0 0 0 0 0 0 0
0 0 0 0 0 0 0 0 0 0 0 0 0 0 0 0 0 0 0 0 0 0 0 0 0 0 0 0 0 0 0 0 0 0 0 0 0 0
0 0 0 0 0 0 0 0 0 0 0 0 0 0 0 0 0 0 0 0 0 0 0 0 0 0 0 0 0 0 0 0 0 0 0 0 0 0
0 0 0 0 0 0 0 0 0 0 0 0 0 0 0 0 0 0 0 0 0 0 0 0 0 0 0 0 0 0 0 0 0 0 0 0 0 0
0 0 0 0 0 0 0 0 0 0 0 0 0 0 0 0 0 0 0 0 0 0 0 0 0 0 0 0 0 0 0 0 0 0 0 0 0 0
0 0 0 0 0 0 0 0 0 0 0 0 0 0 0 0 0 0 0 0 0 0 0 0 0 0 0 0 0 0 0 0 0 0 0 0 0 0
0 0 0 0 0 0 0 0 0 0 0 0 0 0 0 0 0 0 0 0 0 0 0 0 0 0 0 0 0 0 0 0 0 0 0 0 0 0
0 0 0 0 0 0 0 0 0 0 0 0 0 0 0 0 0 0 0 0 0 0 0 0 0 0 0 0 0 0 0 0 0 0 0 0 0 0
0 0 0 0 0 0 0 0 0 0 0 0 0 0 0 0 0 0 0 0 0 0 0 0 0 0 0 0 0 -2 0 0 0 0 0 0 0 0
0 0 0 0 0 0 0 0 0 0 0 0 0 0 0 0 0 0 0 0 0 0 0 -1 0 0 0 0 0 0 0 0 0 0 0 0 0 0
0 0 0 0 0 0 0 0 0 0 0 0 0 0 0 0 0 0 0 0 0 0 0 0 0 0 0 0 0 0 0 0 0 0 0 0 0 0
0 0 0 0 0 0 0 0 0 0 0 0 0 0 0 0 0 0 0 0 0 0 0 0 0 0 0 0 0 0 0 0 0 0 0 0 0 0
0 0 0 0 0 0 0 0 -1 0 0 0 0 0 0 0 0 0 0 0 0 0 0 0 0 0 0 0 0 0 0 0 0 0 0 0 0 0
0 0 0 0 0 0 0 0 0 0 0 0 0 0 0 0 0 0 0 0 0 0 0 0 0 0 0 0 0 0 0 0 0 0 0 0 0 0
0 0 0 0 0 0 0 0 0 0 0 0 0 0 0 0 0 0 0 0 0 0 0 0 0 0 0 0 0 0 0 0 0 0 0 0 0 0
0 0 0 0 0 0 0 0 0 0 0 0 0 0 0 0 0 0 0 0 0 0 0 0 0 0 0 0 0 0 0 0 0 0 0 0 0 0
0 0 0 0 0 0 0 0 0 0 0 0 0 0 0 0 0 0 0 0 0 0 0 0 0 0 0 0 0 0 0 0 0 0 0 0 0 0
0 0 0 0 0 0 0 0 0 0 0 0 0 0 0 0 0 0 0 0 0 0 0 0 0 0 0 0 0 0 0 0 0 0 0 0 0 0
0 0 0 0 0 0 0 0 0 0 0 0 0 0 0 0 0 0 0 0 0 0 0 0 0 0 0 0 0 0 0 0 0 0 0 0 -1 0
0 0 0 0 0 0 0 0 0 0 0 0 0 0 0 0 0 0 0 0 0 0 0 0 0 0 0 0 0 0 0 0 0 0 0 0 -1 -1
0 0 0 0 0 0 0 0 0 0 0 0 0 0 0 0 0 0 0 0 0 0 0 0 0 0 0 0 0 0 0 0 0 0 0 0 0 0
Wind_Speed
6 6 4 3 3 3 4 4 6 4 2 2 2 3 3 3 6 5 6 11 12 11 11 12 12 11 12 11 12 11 12 11 11 13 14 13 13 14
5 8 5 3 4 4 4 3 3 5 4 1 1 1 3 3 6 5 6 9 10 10 10 10 10 11 11 11 11 11 11 11 11 11 12 12 13 14
5 8 7 5 4 4 4 3 4 3 5 2 1 1 3 3 4 4 5 5 4 9 10 9 10 9 9 10 10 9 9 10 10 11 11 12 13 13
7 8 8 6 6 5 4 5 3 3 5 5 2 2 3 3 3 4 3 3 4 7 9 9 10 11 11 10 9 9 9 8 9 10 11 11 12 13
5 8 7 8 6 4 4 5 4 3 3 6 4 2 2 1 3 3 3 3 3 8 10 11 10 10 9 9 10 9 8 9 8 9 9 10 11 13
6 6 6 6 8 7 6 6 5 5 5 6 4 3 3 2 3 3 3 3 3 3 5 7 9 9 9 10 9 9 9 9 7 8 8 9 9 12
6 6 6 8 13 9 6 5 6 5 4 5 4 3 2 2 2 0 2 1 2 3 3 3 3 3 4 8 7 9 9 10 10 9 9 9 9 11
7 5 4 11 13 17 15 12 8 5 3 3 3 3 3 3 2 1 1 2 1 1 3 3 2 3 3 3 11 10 9 10 10 10 12 12 10 11
7 7 6 5 9 7 15 16 13 12 7 5 5 3 3 3 4 2 1 1 1 2 2 2 1 2 2 4 12 8 6 9 12 13 14 14 14 14
6 5 7 6 7 9 8 8 7 6 6 5 6 5 4 5 4 3 3 1 2 2 2 2 1 2 3 4 7 3 9 12 14 14 14 15 16 17
5 5 6 6 13 14 8 7 6 5 8 10 9 8 7 7 5 3 1 3 2 1 1 1 2 3 2 3 3 4 11 15 15 14 15 16 17 18
5 5 12 7 13 13 7 6 6 4 5 5 4 6 6 5 6 3 3 2 1 2 1 1 2 2 4 2 2 2 3 15 14 18 20 18 18 6
6 4 3 12 12 12 11 5 5 6 7 4 4 3 3 3 3 3 2 2 2 2 2 2 0 1 2 3 2 2 4 4 5 9 14 17 15 14
6 4 4 12 11 12 8 9 10 8 4 3 2 2 2 2 2 2 2 2 0 2 3 0 2 2 2 3 4 2 3 6 5 5 6 10 15 18
4 8 10 10 11 8 12 10 7 4 4 2 2 2 3 3 2 1 1 1 1 2 3 2 2 2 2 3 4 3 7 3 6 5 3 6 5 6
9 6 7 6 6 5 3 5 4 4 4 3 2 2 2 2 2 2 2 1 0 3 2 3 3 1 2 3 4 6 6 3 4 6 6 6 6 6
6 3 2 2 2 1 1 2 2 3 3 3 2 3 2 2 2 2 2 1 2 2 3 2 3 5 5 6 3 7 6 5 6 7 6 7 6 7
3 3 3 3 4 3 3 2 2 5 3 3 3 3 3 3 3 2 2 3 3 2 3 2 2 4 4 5 13 6 6 5 4 4 7 8 9 7
4 3 4 4 4 4 4 3 4 4 3 4 4 5 4 4 5 3 3 3 3 4 4 2 2 3 2 4 3 12 4 2 7 7 7 7 10 9
6 4 5 5 5 5 4 4 4 3 3 4 4 4 4 4 3 3 4 4 4 3 4 4 3 4 4 4 3 5 15 9 7 8 8 8 11 21
3 4 4 5 5 5 5 5 5 5 5 4 5 5 5 4 5 5 5 11 10 4 5 6 6 12 2 2 5 6 6 15 14 9 8 9 10 10
5 5 5 5 5 6 6 6 5 5 4 5 6 6 6 6 7 7 6 6 6 6 7 6 3 2 1 5 9 9 5 6 11 17 20 19 8 9
4 5 4 5 5 5 5 5 6 6 6 6 6 6 6 6 7 7 7 7 6 6 6 6 3 3 6 7 12 9 11 9 7 8 8 19 22 23
Wind_Direction
120 117 107 91 89 108 121 133 138 142 162 234 127 17 39 43 62 41 32 59 64 61 58 54 47 44 45 42 38 32 30 24 18 12 13 9 9 9
124 115 103 97 92 85 100 97 96 128 128 177 115 104 28 63 57 53 48 44 48 58 60 57 53 53 47 40 34 31 23 18 12 7 6 5 6 4
110 117 109 115 104 101 98 96 94 99 110 116 97 65 60 70 47 48 55 49 13 57 56 57 54 51 45 41 33 24 16 11 6 5 6 6 2 360
121 109 115 109 92 102 102 102 107 92 118 125 117 99 91 57 69 66 25 43 26 38 56 56 52 46 37 30 16 8 3 4 3 6 2 0 357 355
117 118 121 121 110 107 104 103 97 89 97 132 126 114 94 72 74 58 49 24 22 46 59 48 39 28 13 7 3 1 358 351 353 351 355 354 355 353
91 98 110 115 122 117 105 108 105 94 93 106 89 101 106 63 84 108 61 44 39 16 27 31 20 15 10 9 1 359 349 346 334 328 329 340 357 350
82 100 105 119 119 120 119 116 108 98 105 108 99 103 101 103 108 100 97 32 28 25 346 340 354 356 357 358 341 337 340 342 336 337 333 347 340 341
113 88 107 113 113 111 112 117 121 127 112 113 110 116 111 114 109 101 96 56 13 354 8 315 19 345 332 333 337 334 342 339 340 335 331 331 333 334
130 130 115 105 95 97 105 100 99 100 113 139 124 131 128 157 135 111 108 117 204 290 29 296 337 328 300 314 329 330 349 7 3 356 346 336 330 326
126 125 119 112 113 112 105 94 82 82 83 91 112 129 118 142 123 134 141 148 279 271 158 254 320 273 294 299 322 44 24 7 352 340 331 327 324 322
130 121 121 132 141 132 112 112 103 74 111 115 119 129 129 150 140 98 40 89 312 273 57 158 306 295 290 308 325 343 351 347 344 341 331 324 319 319
123 135 152 160 146 141 131 133 120 137 120 91 78 77 73 65 93 108 151 146 167 340 252 341 319 4 331 287 294 316 335 341 329 325 320 318 319 313
146 151 168 166 154 145 141 137 152 142 142 123 114 99 77 69 85 86 120 148 154 228 282 63 277 314 210 296 297 297 295 296 303 299 301 311 315 318
155 155 174 175 171 165 152 161 152 143 125 122 115 136 147 144 136 94 92 92 244 243 312 23 207 187 209 299 269 282 300 280 272 277 287 296 309 311
142 170 181 182 180 179 164 174 149 129 129 121 163 184 180 159 122 73 43 60 322 292 293 273 211 244 178 245 282 289 308 288 286 284 282 293 286 289
168 176 180 177 157 163 175 182 137 153 167 169 176 177 114 121 152 168 184 198 7 294 295 301 318 221 256 233 253 275 267 272 303 299 290 287 282 274
135 91 89 96 108 114 93 128 136 149 156 165 151 165 167 160 191 174 190 174 191 257 289 282 271 273 250 245 260 253 264 264 269 278 292 297 293 284
116 141 168 163 172 181 182 181 169 196 190 171 169 182 188 192 206 203 182 185 215 249 272 271 296 353 338 282 229 253 261 258 272 294 295 291 291 286
165 164 174 185 198 193 189 186 199 203 177 185 190 199 198 198 236 186 202 206 249 248 251 235 245 137 258 263 269 273 267 288 299 290 285 279 286 288
202 169 193 185 195 200 197 202 210 205 194 201 199 201 199 194 191 210 217 213 236 245 256 259 233 222 201 239 241 269 282 283 280 282 286 279 275 285
167 180 180 183 193 193 202 203 203 209 202 195 207 202 207 182 216 217 221 247 246 205 236 247 246 261 194 8 284 266 257 270 278 280 288 286 293 294
183 191 193 191 195 195 202 205 204 222 221 202 212 209 212 197 215 217 216 221 234 240 249 259 249 231 178 247 267 276 268 266 271 283 285 278 281 283
190 189 188 196 200 197 194 193 207 218 216 220 210 212 208 209 214 215 219 219 225 233 242 252 232 208 247 253 268 276 281 278 283 285 276 279 283 282